SCP
0 0 0 0 0 0 0 0 0 0 0 0 0 0 0 0 0 0 0 0 0 0 0 0 0 0 0 0 0 0 0 0 0 0 0 0 0 0 0 0 0 0 0 0 0 0 0 0 0
0 0 0 0 0 0 0 0 0 0 0 0 0 0 0 0 0 0 0 0 0 0 0 0 0 0 0 0 0 0 0 0 0 0 0 0 0 0 0 0 0 0 0 0 0 0 0 0 0
0 0 0 0 0 0 0 0 0 0 0 0 0 0 0 0 0 0 0 0 0 0 0 0 0 0 0 0 0 0 0 0 0 0 0 0 0 0 0 0 0 0 0 0 0 0 0 0 0
0 0 0 0 0 0 0 0 0 0 0 0 0 0 0 0 0 0 0 0 0 0 0 0 0 0 0 0 0 0 0 0 0 0 0 0 0 0 0 0 0 0 0 0 0 0 0 0 0
0 0 0 0 0 0 0 0 0 0 0 0 0 0 0 0 0 0 0 0 0 0 0 0 0 0 0 0 0 0 0 0 0 0 0 0 0 0 0 0 0 0 0 0 0 0 0 0 0
0 0 0 0 0 0 0 0 0 0 0 0 0 0 0 0 0 0 0 0 0 0 0 0 0 0 0 0 0 0 0 0 0 0 0 0 0 0 0 0 0 0 0 0 0 0 0 0 0
0 0 0 0 0 0 0 0 0 0 0 0 0 0 0 0 0 0 0 0 0 0 0 0 0 0 0 0 0 0 0 0 0 0 0 0 0 0 0 0 0 0 0 0 0 0 0 0 0
0 0 0 0 0 0 0 0 0 0 0 0 0 0 0 0 0 0 0 0 0 0 0 0 0 0 0 0 0 0 0 0 0 0 0 0 0 0 0 0 0 0 0 0 0 0 0 0 0
0 0 0 0 0 0 0 0 0 0 0 0 0 0 0 0 0 0 0 0 0 0 0 0 0 0 0 0 0 0 0 0 0 0 0 0 0 0 0 0 0 0 0 0 0 0 0 0 0
0 0 0 0 0 0 0 0 0 0 0 0 0 0 0 0 0 0 0 0 0 0 0 0 0 0 0 0 0 0 0 0 0 0 0 0 0 0 0 0 0 0 0 0 0 0 0 0 0
0 0 0 0 0 0 0 0 0 0 0 0 0 0 0 0 0 0 0 0 0 0 0 0 0 0 0 0 0 0 0 0 0 0 0 0 0 0 0 0 0 0 0 0 0 0 0 0 0
0 0 0 0 0 0 0 0 0 0 0 0 0 0 0 0 0 0 0 0 0 0 0 0 0 0 0 0 0 0 0 0 0 0 0 0 0 0 0 0 0 0 0 0 0 0 0 0 0
0 0 0 0 0 0 0 0 0 0 0 0 0 0 0 0 0 0 0 0 0 0 0 0 0 0 0 0 0 0 0 0 0 0 0 0 0 0 0 0 0 0 0 0 0 0 0 0 0
0 0 0 0 0 0 0 0 0 0 0 0 0 0 0 0 0 0 0 0 0 0 0 0 0 0 0 0 0 0 0 0 0 0 0 0 0 0 0 0 0 0 0 0 0 0 0 0 0
0 0 0 0 0 0 0 0 0 0 0 0 0 0 0 0 0 0 0 0 0 0 0 0 0 0 0 0 0 0 0 0 0 0 0 0 0 0 0 0 0 0 0 0 0 0 0 0 0
0 0 0 0 0 0 0 0 0 0 0 0 0 0 0 0 0 0 0 0 0 0 0 0 0 0 0 0 0 0 0 0 0 0 0 0 0 0 0 0 0 0 0 0 0 0 0 0 0
0 0 0 0 0 0 0 0 0 0 0 0 0 0 0 0 0 0 0 0 0 0 0 0 0 0 0 0 0 0 0 0 0 0 0 0 0 0 0 0 0 0 0 0 0 0 0 0 0
0 0 0 0 0 0 0 0 0 0 0 0 0 -0 -0 -0 0 0 0 0 0 0 0 0 0 0 0 0 0 0 0 0 0 0 0 0 0 0 0 0 0 0 0 0 0 0 0 0 0
0 0 0 0 0 0 0 0 0 0 0 0 0 -0 -0 -0 0 0 0 0 0 0 0 0 0 0 0 0 0 0 0 0 0 0 0 0 0 0 0 0 0 0 0 0 0 0 0 0 0
0 0 0 0 0 0 0 0 0 0 0 0 0 -0 -0 -0 0 0 0 0 0 0 0 0 0 0 0 0 0 0 0 0 0 0 0 0 0 0 0 0 0 0 0 0 0 0 0 0 0
0 0 0 0 0 0 0 0 0 0 0 0 0 -0 -0 -0 0 0 0 0 0 0 0 0 0 0 0 0 0 0 0 0 0 0 0 0 0 0 0 0 0 0 0 0 0 0 0 0 0
0 0 0 0 0 0 0 0 0 0 -0 0 0 0 0 0 0 0 0 0 0 0 0 0 0 0 0 0 0 0 0 0 0 0 -0 -0 -0 0 0 0 0 0 0 0 0 0 0 0 0
0 0 0 0 0 0 0 0 0 0 0 0 0 0 0 0 0 0 0 0 0 0 0 0 0 0 0 0 0 0 0 0 0 0 0 0 0 0 0 0 0 0 0 0 0 0 0 0 0
0 0 0 0 0 0 0 0 0 0 0 0 0 0 0 0 0 0 0 0 0 0 0 0 0 0 0 0 0 0 0 0 0 0 0 0 0 0 0 0 0 0 0 0 0 0 0 0 0
0 0 0 0 0 0 0 0 0 0 0 0 0 0 0 0 0 0 0 0 0 0 0 0 0 0 0 0 0 0 0 0 0 0 0 0 0 0 0 0 0 0 0 0 0 0 0 0 0
0 0 0 0 0 0 0 0 0 0 0 0 0 0 0 0 0 0 0 0 0 0 0 0 0 0 0 0 0 0 0 0 0 0 0 0 0 0 0 0 0 0 0 0 0 0 0 0 0
0 0 0 0 0 0 0 0 0 0 -0 -0 -0 0 0 0 0 0 0 0 0 0 0 0 0 0 0 0 0 0 0 0 0 0 0 0 0 0 0 0 0 0 0 0 0 0 0 0 0
0 0 0 0 0 0 0 0 0 0 0 -0 0 0 0 0 0 0 -0 0 0 0 0 0 0 0 0 0 0 0 0 0 0 0 0 0 0 0 0 0 0 0 0 0 0 0 0 0 0
0 0 0 0 0 0 0 0 0 0 0 0 0 0 0 0 0 -0 -0 0 0 -0 -0 0 0 0 0 0 0 0 0 0 0 0 0 0 0 0 0 0 0 0 0 0 0 0 0 0 0
0 0 0 0 0 0 0 0 0 0 0 0 0 0 0 0 -0 -0 -0 0 0 0 -0 -0 0 0 0 0 0 0 0 0 0 0 0 0 0 0 0 0 0 0 0 0 0 0 0 0 0
Wind_Speed
12 6 2 4 6 5 1 1 1 2 2 2 3 5 6 4 3 3 1 3 3 3 3 4 6 7 8 8 9 9 9 9 9 10 10 10 10 10 10 10 9 10 10 10 10 10 10 10 10
5 3 4 5 5 2 1 1 1 1 1 2 4 5 5 4 3 3 2 2 3 3 4 4 6 7 8 8 9 9 9 9 9 9 9 9 9 9 9 9 9 9 9 9 9 9 9 9 9
3 3 5 5 4 3 2 0 2 2 3 3 4 4 3 3 2 1 1 2 4 4 4 4 7 7 8 8 9 9 9 8 8 9 9 9 9 8 8 8 8 8 8 8 8 8 8 8 8
3 4 6 5 3 1 1 0 1 2 4 5 3 4 3 4 3 2 3 4 5 5 4 4 7 7 8 8 8 9 9 9 9 9 9 8 8 8 8 8 8 7 7 8 8 7 7 8 8
4 5 5 3 1 0 1 2 2 3 3 4 3 4 3 4 5 5 4 5 5 5 4 4 7 7 8 8 9 9 9 9 9 9 9 9 8 8 7 7 7 7 7 7 7 7 7 7 8
5 5 4 3 2 1 2 3 3 4 3 3 4 3 3 4 6 4 4 4 4 5 5 5 7 8 8 9 9 10 10 10 10 10 9 9 9 9 8 8 7 7 7 7 7 7 7 7 7
5 5 4 4 3 1 2 4 4 3 3 3 1 3 2 3 4 4 5 5 5 6 6 5 5 6 7 8 9 10 10 10 10 10 10 10 9 9 9 9 8 8 7 7 7 7 7 7 7
4 6 4 2 3 1 2 3 4 4 2 2 3 4 1 0 3 5 6 6 6 5 5 5 5 5 5 5 8 9 9 9 10 10 9 9 9 9 9 8 9 8 8 8 8 8 8 8 8
4 6 3 2 3 2 2 3 3 3 3 4 4 2 1 4 5 6 5 5 5 5 4 4 4 5 4 4 5 6 7 8 8 7 8 7 5 5 5 7 8 9 9 8 8 8 8 7 7
6 4 2 1 2 4 3 3 2 3 4 4 4 5 5 5 5 5 4 3 3 3 3 3 4 4 3 3 3 3 4 4 5 5 5 4 4 4 5 7 8 8 8 8 9 9 8 6 3
5 4 3 3 3 4 4 4 3 4 3 2 2 3 4 4 4 4 3 2 1 1 2 3 3 3 3 2 2 2 2 3 4 5 4 4 3 3 4 3 4 5 6 5 6 6 4 3 3
6 5 3 3 3 4 3 3 4 4 1 2 2 2 3 4 3 2 2 2 1 1 2 2 2 2 2 2 2 2 2 2 3 3 4 3 2 3 3 3 3 3 3 3 3 3 4 4 3
5 4 5 6 7 6 5 4 3 2 2 3 4 5 4 3 2 2 2 2 2 2 2 2 1 2 2 1 1 2 2 2 2 2 3 3 2 2 2 2 3 3 3 3 3 3 3 3 3
4 6 5 5 5 4 6 3 3 1 2 4 5 4 3 2 2 2 2 2 2 2 2 2 2 2 2 1 1 2 2 2 2 2 3 3 2 2 2 2 2 3 3 2 2 2 2 2 2
4 6 6 5 4 2 3 5 2 1 3 4 3 2 3 3 3 2 2 2 2 2 2 2 1 2 2 2 2 2 2 2 2 2 2 3 2 2 2 2 2 2 2 3 2 2 2 2 2
4 5 3 4 3 3 3 1 1 0 2 2 2 2 3 3 3 3 3 3 3 2 2 2 1 2 2 2 2 2 2 2 1 1 2 2 2 2 1 1 2 2 2 2 2 2 2 2 2
5 3 2 3 4 3 3 2 3 1 1 1 2 2 2 3 4 4 3 3 3 3 3 2 2 2 1 1 2 2 2 2 1 1 2 2 2 2 1 1 1 2 2 2 2 2 1 2 2
2 3 2 1 4 4 2 1 4 2 0 1 2 2 3 3 4 4 3 3 3 3 3 2 2 2 1 1 1 2 2 2 2 2 2 2 2 2 1 1 2 2 2 2 2 2 2 1 2
4 4 2 2 3 2 1 2 5 3 1 2 2 2 3 3 3 3 2 3 3 4 3 2 2 1 1 0 0 0 0 1 1 1 2 2 2 2 1 1 1 2 1 2 2 1 2 2 2
5 4 2 2 3 2 2 4 4 2 2 3 3 3 3 3 3 3 3 3 3 3 3 2 2 1 0 0 1 1 1 1 0 1 2 2 2 2 1 2 1 1 1 2 2 2 1 1 2
4 3 2 1 3 3 3 5 3 2 2 2 2 3 3 3 3 2 2 2 2 2 2 2 2 1 1 1 1 1 1 1 1 2 2 3 3 3 2 2 1 2 1 1 1 1 0 1 1
1 1 2 1 2 3 3 4 5 3 4 3 4 3 3 3 2 2 2 2 2 3 2 2 2 2 1 1 1 1 1 0 1 1 1 2 2 3 3 3 3 2 2 2 2 1 1 0 1
1 1 1 1 2 1 2 1 8 2 4 5 4 4 4 3 3 3 2 2 2 2 1 1 2 2 1 1 1 1 1 0 0 1 2 2 2 3 3 3 2 2 2 2 2 2 2 1 0
1 2 3 3 3 1 1 1 7 4 5 5 4 3 3 3 3 3 3 1 2 2 2 1 1 2 2 1 1 1 1 1 1 1 1 2 2 2 3 2 2 2 2 2 2 2 2 1 1
4 4 4 5 3 4 1 2 9 6 4 4 5 5 3 3 3 3 3 3 2 2 2 2 1 1 2 0 0 1 1 1 1 1 1 1 1 1 2 2 2 2 2 2 1 2 2 1 1
2 3 4 3 3 5 2 6 8 4 3 4 4 3 3 3 3 3 4 3 3 3 2 2 2 2 1 1 1 1 1 1 1 1 1 1 1 1 1 1 1 2 2 2 2 1 1 1 1
3 3 2 5 1 2 5 7 9 2 3 3 2 2 3 4 4 4 4 4 3 3 3 3 3 2 2 2 1 1 1 1 1 1 0 0 1 1 1 1 1 1 1 1 1 1 1 1 1
3 4 4 4 2 3 6 5 6 4 4 3 3 4 4 4 4 4 4 4 3 3 3 3 3 3 3 2 2 1 1 1 1 0 0 1 1 1 1 1 1 1 1 1 1 1 1 2 2
2 2 4 3 3 3 4 8 5 5 4 4 5 5 5 5 4 4 4 4 3 3 3 2 2 2 3 2 2 1 1 1 1 0 1 1 1 1 1 1 1 1 1 1 1 1 1 2 2
1 3 5 3 3 3 3 10 3 4 3 4 5 5 5 5 4 5 4 4 3 3 3 3 2 2 3 2 2 1 1 1 1 1 1 1 1 1 1 1 1 1 1 1 1 2 2 2 3
Wind_Direction
333 335 32 55 58 56 87 281 85 51 34 24 52 86 101 91 96 119 31 54 68 93 81 82 80 86 85 82 86 91 94 96 95 92 88 86 82 79 76 73 71 73 73 72 69 66 62 58 54
327 347 48 58 85 97 266 299 87 65 100 89 56 63 72 66 52 81 53 16 81 88 81 76 78 84 86 84 82 83 88 93 93 93 89 86 82 79 78 74 69 69 69 70 68 63 57 54 49
334 39 74 76 99 156 177 84 118 59 48 53 67 51 67 45 32 52 6 78 78 72 69 73 77 82 85 84 82 80 78 84 88 90 88 83 79 77 76 73 67 64 61 61 61 58 52 47 44
44 50 60 78 116 180 165 73 108 71 42 35 85 72 64 35 11 14 69 82 80 62 57 69 75 81 84 81 80 79 76 75 79 84 83 80 76 72 70 70 65 58 55 52 50 51 47 42 37
57 75 76 84 126 66 62 29 50 68 48 21 67 94 63 17 33 61 78 79 83 67 55 63 73 72 75 78 79 77 74 71 69 70 74 74 71 66 62 62 60 55 50 46 42 39 41 40 36
60 69 98 147 157 105 46 20 52 60 62 42 61 92 79 24 36 56 69 71 72 73 59 55 61 64 64 66 69 70 69 66 66 66 65 68 68 63 56 51 50 48 47 44 38 32 33 34 33
93 90 118 139 137 82 34 12 46 58 51 22 15 99 93 28 27 56 66 66 62 62 61 52 50 59 61 61 64 66 65 63 63 63 59 55 54 56 51 43 41 40 39 37 33 29 29 29 30
101 99 97 116 132 116 22 32 47 41 57 20 52 101 128 340 60 71 70 62 57 53 57 54 48 49 54 58 61 63 61 59 58 56 53 52 48 47 47 40 37 35 32 29 26 26 28 27 26
72 80 117 151 148 134 49 57 28 24 68 51 52 72 86 109 97 85 77 60 52 44 39 45 50 46 44 53 59 59 58 55 55 50 50 48 39 36 38 34 31 29 25 21 20 19 24 24 21
60 100 125 110 132 129 81 70 61 50 44 50 49 47 76 101 105 101 90 79 63 42 28 32 39 45 45 52 57 50 49 47 46 45 44 42 37 32 34 28 25 24 23 18 19 19 18 21 12
65 102 106 63 81 99 87 63 41 82 45 42 80 74 89 99 99 100 99 99 79 49 29 30 31 31 42 53 61 53 46 43 41 40 40 41 39 33 32 26 15 15 19 18 12 14 12 12 9
87 61 77 68 55 59 78 83 57 51 14 360 54 95 106 103 87 86 78 52 39 54 28 16 20 29 31 55 67 66 61 50 41 33 35 43 41 34 29 29 16 14 12 11 10 6 3 3 6
80 83 59 64 64 69 76 76 94 48 352 24 68 78 88 91 71 50 57 47 36 26 6 351 19 36 31 53 60 68 64 59 45 37 35 44 47 34 27 22 18 10 5 7 3 2 1 2 6
102 96 77 53 57 52 72 49 68 3 39 61 63 60 63 65 65 46 35 26 15 2 352 350 17 31 41 61 75 72 72 65 55 43 34 39 44 40 33 22 16 7 357 352 356 357 359 356 8
99 84 55 30 33 50 65 32 33 307 59 54 44 43 46 34 27 21 12 7 354 351 350 350 9 41 57 58 72 83 77 72 61 44 37 40 40 42 40 27 12 353 348 352 360 4 16 17 23
61 71 57 6 23 3 76 11 327 100 93 36 358 2 17 11 3 358 1 357 358 3 2 10 36 58 63 67 65 72 79 79 63 46 38 34 28 33 49 34 2 348 360 6 2 7 13 14 10
44 77 70 354 14 17 73 236 298 357 101 336 330 339 342 351 348 347 355 1 359 360 2 20 37 63 71 72 73 67 59 63 56 51 41 25 19 17 38 28 356 354 13 15 2 9 7 359 353
118 97 75 351 349 27 48 279 306 313 182 284 315 332 332 331 322 335 351 354 357 2 7 19 36 39 47 79 77 73 58 48 42 43 33 23 12 12 21 20 7 9 21 17 8 360 17 2 342
116 105 84 333 337 17 26 299 298 294 302 291 300 304 299 305 320 344 351 354 6 9 9 359 15 14 43 77 144 126 79 29 32 37 31 21 8 7 20 9 13 19 25 13 3 347 15 15 5
99 96 54 335 354 21 339 299 295 269 253 244 252 265 269 293 326 337 347 1 360 351 350 350 341 346 39 300 214 180 165 126 74 31 30 17 2 354 16 24 14 12 14 26 22 15 350 7 23
68 119 155 274 338 23 354 320 304 307 322 293 268 260 269 260 274 301 322 331 339 333 326 323 327 341 6 17 59 65 64 39 27 6 12 11 12 9 11 20 28 19 26 20 14 3 346 277 329
73 109 151 133 49 350 24 308 293 290 309 289 278 280 276 276 270 276 285 307 303 294 312 328 328 342 356 54 93 105 118 129 293 320 333 7 24 32 25 21 28 26 24 16 357 0 333 270 282
158 99 106 96 89 15 14 278 288 322 288 278 269 270 279 278 269 267 268 268 284 297 312 320 325 333 346 55 99 140 150 184 359 359 10 12 20 30 22 23 31 25 17 12 7 4 7 3 333
118 64 57 53 64 341 266 203 281 256 249 282 278 275 278 280 280 283 293 297 308 331 333 331 329 333 346 33 96 160 203 223 50 1 354 357 5 14 12 13 15 12 10 7 4 7 18 8 11
47 75 37 12 10 263 271 235 254 259 254 256 267 270 276 278 277 286 290 295 302 315 316 315 306 313 326 328 212 219 230 229 213 234 264 314 341 344 348 1 5 4 3 8 14 25 18 9 17
40 94 133 182 245 288 301 245 257 265 280 276 268 268 288 287 277 273 274 277 281 286 289 285 275 275 286 270 254 248 243 233 244 239 232 246 285 298 337 358 8 9 12 9 9 17 355 3 357
93 85 115 120 70 301 278 282 295 261 289 294 297 299 287 278 273 272 279 277 269 269 267 255 249 257 265 259 257 268 256 234 254 279 296 265 288 309 3 16 16 7 9 7 9 9 343 347 339
81 130 94 102 112 293 295 274 260 274 275 285 300 294 284 282 281 280 279 274 268 260 260 257 240 238 249 247 238 240 248 230 202 184 259 286 301 327 349 349 359 356 351 349 8 356 347 353 331
89 96 105 108 151 171 287 276 230 234 251 266 277 278 273 271 275 274 274 271 265 266 264 265 258 250 252 245 239 240 252 238 195 189 240 267 300 304 306 316 340 343 342 341 350 330 327 322 320
197 180 157 157 229 202 237 271 264 241 259 267 276 279 276 270 270 271 270 271 262 260 260 258 262 257 255 245 227 223 235 226 214 242 261 270 283 305 302 305 337 332 330 324 316 308 314 304 302